Location: Bear Valley Meadows
(40.9851°N, 123.0761°W)
Time: 20:52:03
(UTC+00:00)

Hubble Space Telescope - Visible Passes

Search period start: 17 May 2025 00:00
Search period end: 27 May 2025 00:00
Orbit: 489 x 493 km, 28.5° (Epoch: 16 May)

Date Brightness Start Highest point End Pass type
(mag) Time Alt. Az. Time Alt. Az. Time Alt. Az.
22 May 2.9 11:22:59 10° S 11:23:10 10° S 11:23:32 10° SSE visible
24 May 2.7 12:08:12 10° SSW 12:09:52 12° S 12:11:32 10° SSE visible
25 May 2.6 11:42:40 12° SSW 11:43:33 12° S 11:45:11 10° SSE visible
26 May 2.8 11:17:56 12° S 11:17:56 12° S 11:18:49 10° SSE visible
